CT203 YGEL-YPPH

Flight info

Callsign CT203
Flight time 0h 50m
Altitude 19000
Route GEL Z41 HINDS/N0318F180 Q38 JULIM
Aircraft DH8D/M-SDE2E3FGRY/H

Departure

Time 2026-04-22 03:53
Airport Geraldton Airport (YGEL)

Arrival

Time 2026-04-22 04:43
Airport Perth International Airport (YPPH)
Time Latitude Longitude Altitude Speed Heading
2026-04-22 03:31 -28.79695 114.70279 129 ft 0 kts 329°
2026-04-22 03:48 -28.79659 114.70304 128 ft 17 kts 76°
2026-04-22 03:48 -28.79575 114.70393 130 ft 15 kts 75°
2026-04-22 03:48 -28.79603 114.70514 127 ft 15 kts 107°
2026-04-22 03:48 -28.79608 114.70532 127 ft 0 kts 109°
2026-04-22 03:50 -28.79610 114.70537 127 ft 5 kts 109°
2026-04-22 03:50 -28.79673 114.70629 125 ft 23 kts 191°
2026-04-22 03:50 -28.79899 114.70546 124 ft 44 kts 198°
2026-04-22 03:51 -28.80234 114.70419 122 ft 50 kts 199°
2026-04-22 03:51 -28.80563 114.70295 118 ft 47 kts 194°
2026-04-22 03:51 -28.80778 114.70252 111 ft 15 kts 210°
2026-04-22 03:51 -28.80725 114.70234 113 ft 10 kts 19°
2026-04-22 03:52 -28.80697 114.70245 115 ft 23 kts 18°
2026-04-22 03:52 -28.80208 114.70429 123 ft 116 kts 18°
2026-04-22 03:52 -28.79253 114.70795 183 ft 165 kts 18°
2026-04-22 03:52 -28.78137 114.71268 691 ft 174 kts 20°
2026-04-22 03:53 -28.77109 114.71961 1378 ft 178 kts 51°
2026-04-22 03:53 -28.76815 114.73276 2072 ft 182 kts 99°
2026-04-22 03:53 -28.77532 114.74485 2611 ft 197 kts 137°
2026-04-22 03:53 -28.78823 114.75073 3173 ft 210 kts 173°
2026-04-22 03:54 -28.80278 114.75017 3888 ft 212 kts 188°
2026-04-22 03:54 -28.81780 114.74706 4413 ft 226 kts 195°
2026-04-22 03:54 -28.83337 114.74274 4893 ft 241 kts 188°
2026-04-22 03:54 -28.84993 114.74516 5560 ft 243 kts 156°
2026-04-22 03:55 -28.86458 114.75446 6264 ft 245 kts 150°
2026-04-22 03:55 -28.88032 114.76266 6849 ft 252 kts 158°
2026-04-22 03:55 -28.89620 114.77160 7545 ft 253 kts 144°
2026-04-22 03:55 -28.90969 114.78427 8208 ft 254 kts 137°
2026-04-22 03:56 -28.92291 114.79737 8811 ft 256 kts 139°
2026-04-22 03:56 -28.93664 114.81072 9284 ft 260 kts 139°
2026-04-22 03:56 -28.95049 114.82391 9771 ft 263 kts 140°
2026-04-22 03:56 -28.96472 114.83731 10291 ft 265 kts 140°
2026-04-22 03:57 -28.97895 114.85055 10746 ft 268 kts 141°
2026-04-22 03:57 -28.99363 114.86414 11236 ft 269 kts 141°
2026-04-22 03:57 -29.00820 114.87755 11671 ft 273 kts 142°
2026-04-22 03:57 -29.02314 114.89125 12108 ft 276 kts 142°
2026-04-22 03:58 -29.03807 114.90491 12542 ft 279 kts 142°
2026-04-22 03:58 -29.05329 114.91882 12963 ft 281 kts 143°
2026-04-22 03:58 -29.06861 114.93278 13412 ft 281 kts 143°
2026-04-22 03:58 -29.08394 114.94677 13797 ft 284 kts 143°
2026-04-22 03:59 -29.09949 114.96094 14192 ft 286 kts 143°
2026-04-22 03:59 -29.11512 114.97519 14564 ft 289 kts 143°
2026-04-22 03:59 -29.13077 114.98945 14927 ft 290 kts 143°
2026-04-22 03:59 -29.14649 115.00378 15291 ft 291 kts 143°
2026-04-22 04:00 -29.16244 115.01832 15637 ft 293 kts 143°
2026-04-22 04:00 -29.17854 115.03299 15937 ft 297 kts 144°
2026-04-22 04:00 -29.19463 115.04766 16318 ft 297 kts 144°
2026-04-22 04:00 -29.21099 115.06258 16619 ft 300 kts 144°
2026-04-22 04:01 -29.22739 115.07755 16943 ft 302 kts 144°
2026-04-22 04:01 -29.24364 115.09238 17262 ft 303 kts 144°
2026-04-22 04:01 -29.26029 115.10759 17555 ft 305 kts 144°
2026-04-22 04:01 -29.27682 115.12270 17852 ft 306 kts 144°
2026-04-22 04:02 -29.29363 115.13805 18167 ft 306 kts 144°
2026-04-22 04:02 -29.31040 115.15338 18408 ft 310 kts 144°
2026-04-22 04:02 -29.32710 115.16866 18742 ft 310 kts 144°
2026-04-22 04:02 -29.34414 115.18425 18957 ft 315 kts 144°
2026-04-22 04:03 -29.36157 115.20018 19011 ft 325 kts 144°
2026-04-22 04:03 -29.37962 115.21668 19023 ft 336 kts 144°
2026-04-22 04:03 -29.39827 115.23377 19031 ft 346 kts 144°
2026-04-22 04:03 -29.41713 115.25105 19030 ft 354 kts 144°
2026-04-22 04:04 -29.43658 115.26889 19031 ft 361 kts 144°
2026-04-22 04:04 -29.45639 115.28709 19026 ft 367 kts 144°
2026-04-22 04:04 -29.47652 115.30558 19040 ft 372 kts 144°
2026-04-22 04:04 -29.49671 115.32413 19033 ft 377 kts 144°
2026-04-22 04:05 -29.51741 115.34316 19030 ft 380 kts 144°
2026-04-22 04:05 -29.53798 115.36208 19038 ft 383 kts 144°
2026-04-22 04:05 -29.55908 115.38151 19037 ft 385 kts 144°
2026-04-22 04:05 -29.57991 115.40068 19031 ft 387 kts 144°
2026-04-22 04:06 -29.60106 115.42017 19037 ft 388 kts 144°
2026-04-22 04:06 -29.62222 115.43968 19033 ft 390 kts 144°
2026-04-22 04:06 -29.64328 115.45910 19031 ft 390 kts 144°
2026-04-22 04:06 -29.66460 115.47877 19036 ft 391 kts 144°
2026-04-22 04:07 -29.68558 115.49815 19041 ft 392 kts 144°
2026-04-22 04:07 -29.70704 115.51796 19033 ft 392 kts 144°
2026-04-22 04:07 -29.72834 115.53764 19037 ft 392 kts 144°
2026-04-22 04:07 -29.74966 115.55736 19033 ft 393 kts 144°
2026-04-22 04:08 -29.77094 115.57704 19035 ft 393 kts 144°
2026-04-22 04:08 -29.79224 115.59676 19036 ft 393 kts 144°
2026-04-22 04:08 -29.81333 115.61629 19035 ft 393 kts 144°
2026-04-22 04:08 -29.83478 115.63616 19032 ft 393 kts 144°
2026-04-22 04:09 -29.85621 115.65604 19027 ft 393 kts 143°
2026-04-22 04:09 -29.87732 115.67561 19037 ft 393 kts 143°
2026-04-22 04:09 -29.89874 115.69550 19032 ft 393 kts 143°
2026-04-22 04:09 -29.91983 115.71508 19032 ft 392 kts 143°
2026-04-22 04:10 -29.94121 115.73495 19043 ft 392 kts 143°
2026-04-22 04:10 -29.96240 115.75465 19044 ft 393 kts 143°
2026-04-22 04:10 -29.98362 115.77439 19033 ft 393 kts 143°
2026-04-22 04:10 -30.00487 115.79417 19030 ft 393 kts 143°
2026-04-22 04:11 -30.02622 115.81405 19035 ft 393 kts 143°
2026-04-22 04:11 -30.04762 115.83399 19037 ft 393 kts 143°
2026-04-22 04:11 -30.06879 115.85372 19027 ft 393 kts 143°
2026-04-22 04:11 -30.09015 115.87365 19043 ft 392 kts 143°
2026-04-22 04:12 -30.11118 115.89329 19040 ft 392 kts 143°
2026-04-22 04:12 -30.13250 115.91320 19017 ft 392 kts 143°
2026-04-22 04:12 -30.15375 115.93306 19023 ft 390 kts 143°
2026-04-22 04:12 -30.17455 115.95251 19039 ft 390 kts 143°
2026-04-22 04:13 -30.19583 115.97242 19031 ft 390 kts 143°
2026-04-22 04:13 -30.21679 115.99204 19034 ft 390 kts 143°
2026-04-22 04:13 -30.23802 116.01193 19032 ft 390 kts 143°
2026-04-22 04:13 -30.25917 116.03174 19029 ft 391 kts 143°
2026-04-22 04:14 -30.28033 116.05158 19029 ft 391 kts 143°
2026-04-22 04:14 -30.30153 116.07147 19032 ft 391 kts 143°
2026-04-22 04:14 -30.32244 116.09109 19032 ft 391 kts 143°
2026-04-22 04:14 -30.34352 116.11089 19022 ft 390 kts 143°
2026-04-22 04:15 -30.36464 116.13075 19035 ft 390 kts 143°
2026-04-22 04:15 -30.38567 116.15052 19031 ft 390 kts 143°
2026-04-22 04:15 -30.40663 116.17024 19030 ft 390 kts 143°
2026-04-22 04:15 -30.42786 116.19022 19032 ft 391 kts 143°
2026-04-22 04:16 -30.44876 116.20991 19026 ft 391 kts 143°
2026-04-22 04:16 -30.49104 116.24977 19033 ft 390 kts 143°
2026-04-22 04:16 -30.51219 116.26973 19035 ft 391 kts 143°
2026-04-22 04:17 -30.53314 116.28951 19028 ft 391 kts 143°
2026-04-22 04:17 -30.55405 116.30926 19030 ft 391 kts 143°
2026-04-22 04:17 -30.57519 116.32924 19034 ft 391 kts 143°
2026-04-22 04:17 -30.59649 116.34938 19037 ft 392 kts 143°
2026-04-22 04:18 -30.61759 116.36935 19037 ft 392 kts 143°
2026-04-22 04:18 -30.63849 116.38914 19036 ft 392 kts 143°
2026-04-22 04:18 -30.65973 116.40926 19035 ft 392 kts 143°
2026-04-22 04:18 -30.68082 116.42925 19038 ft 392 kts 143°
2026-04-22 04:19 -30.70199 116.44933 19039 ft 392 kts 143°
2026-04-22 04:19 -30.72293 116.46921 19043 ft 393 kts 143°
2026-04-22 04:19 -30.74424 116.48944 19040 ft 393 kts 143°
2026-04-22 04:19 -30.76537 116.50924 19032 ft 392 kts 146°
2026-04-22 04:20 -30.78942 116.52319 19034 ft 379 kts 171°
2026-04-22 04:20 -30.81495 116.52429 19044 ft 360 kts 197°
2026-04-22 04:20 -30.83896 116.51715 19042 ft 355 kts 204°
2026-04-22 04:20 -30.86243 116.50895 19048 ft 354 kts 205°
2026-04-22 04:21 -30.88606 116.50035 19052 ft 355 kts 206°
2026-04-22 04:21 -30.90970 116.49157 19043 ft 355 kts 206°
2026-04-22 04:21 -30.93317 116.48273 19040 ft 356 kts 206°
2026-04-22 04:21 -30.95674 116.47375 19044 ft 356 kts 206°
2026-04-22 04:22 -30.98056 116.46461 19040 ft 356 kts 206°
2026-04-22 04:22 -31.00399 116.45559 19040 ft 357 kts 206°
2026-04-22 04:22 -31.02781 116.44633 19041 ft 357 kts 207°
2026-04-22 04:22 -31.05120 116.43722 19042 ft 357 kts 206°
2026-04-22 04:23 -31.07494 116.42797 19041 ft 357 kts 207°
2026-04-22 04:23 -31.09833 116.41883 19042 ft 358 kts 207°
2026-04-22 04:23 -31.12213 116.40952 19040 ft 357 kts 207°
2026-04-22 04:23 -31.14568 116.40029 19032 ft 357 kts 207°
2026-04-22 04:24 -31.16909 116.39111 19033 ft 357 kts 207°
2026-04-22 04:24 -31.19270 116.38184 19029 ft 357 kts 207°
2026-04-22 04:24 -31.21646 116.37251 19037 ft 357 kts 207°
2026-04-22 04:24 -31.23991 116.36328 19033 ft 357 kts 207°
2026-04-22 04:25 -31.26333 116.35407 19031 ft 357 kts 207°
2026-04-22 04:25 -31.28710 116.34470 19026 ft 357 kts 207°
2026-04-22 04:25 -31.31064 116.33543 19030 ft 357 kts 207°
2026-04-22 04:25 -31.33404 116.32619 19031 ft 357 kts 207°
2026-04-22 04:26 -31.35782 116.31681 19024 ft 357 kts 207°
2026-04-22 04:26 -31.38126 116.30756 19026 ft 357 kts 207°
2026-04-22 04:26 -31.40493 116.29818 18916 ft 361 kts 207°
2026-04-22 04:26 -31.42809 116.28667 18636 ft 361 kts 215°
2026-04-22 04:27 -31.45014 116.27268 18299 ft 366 kts 217°
2026-04-22 04:27 -31.47284 116.25800 17947 ft 372 kts 217°
2026-04-22 04:27 -31.49559 116.24331 17587 ft 377 kts 216°
2026-04-22 04:27 -31.51869 116.22844 17210 ft 374 kts 216°
2026-04-22 04:28 -31.54112 116.21410 16867 ft 368 kts 216°
2026-04-22 04:28 -31.56351 116.19978 16526 ft 363 kts 216°
2026-04-22 04:28 -31.58570 116.18556 16182 ft 359 kts 216°
2026-04-22 04:28 -31.60736 116.17167 15839 ft 356 kts 216°
2026-04-22 04:29 -31.62920 116.15765 15502 ft 354 kts 216°
2026-04-22 04:29 -31.65074 116.14382 15161 ft 352 kts 216°
2026-04-22 04:29 -31.67205 116.13012 14836 ft 351 kts 216°
2026-04-22 04:29 -31.69346 116.11636 14505 ft 349 kts 216°
2026-04-22 04:30 -31.71465 116.10272 14175 ft 349 kts 216°
2026-04-22 04:30 -31.73601 116.08897 13839 ft 348 kts 216°
2026-04-22 04:30 -31.75832 116.07694 13477 ft 357 kts 204°
2026-04-22 04:30 -31.78261 116.07085 13170 ft 360 kts 197°
2026-04-22 04:31 -31.80733 116.06567 12822 ft 360 kts 196°
2026-04-22 04:31 -31.83239 116.06464 12431 ft 370 kts 175°
2026-04-22 04:31 -31.85703 116.07419 12129 ft 372 kts 160°
2026-04-22 04:31 -31.88062 116.08624 11765 ft 372 kts 159°
2026-04-22 04:32 -31.90437 116.09853 11405 ft 371 kts 158°
2026-04-22 04:32 -31.92808 116.11081 11050 ft 370 kts 158°
2026-04-22 04:32 -31.95140 116.12285 10702 ft 368 kts 158°
2026-04-22 04:32 -31.97466 116.13483 10340 ft 360 kts 159°
2026-04-22 04:33 -31.99767 116.14564 9999 ft 350 kts 161°
2026-04-22 04:33 -32.02037 116.15562 9672 ft 343 kts 161°
2026-04-22 04:33 -32.04228 116.16525 9352 ft 337 kts 161°
2026-04-22 04:33 -32.06438 116.17413 8931 ft 332 kts 169°
2026-04-22 04:34 -32.08651 116.17401 8629 ft 307 kts 194°
2026-04-22 04:34 -32.10683 116.16888 8324 ft 292 kts 197°
2026-04-22 04:34 -32.12624 116.16370 8051 ft 278 kts 197°
2026-04-22 04:34 -32.14467 116.15868 7795 ft 265 kts 197°
2026-04-22 04:35 -32.16237 116.15389 7520 ft 254 kts 197°
2026-04-22 04:35 -32.17910 116.14893 7195 ft 243 kts 205°
2026-04-22 04:35 -32.19159 116.13722 6754 ft 222 kts 246°
2026-04-22 04:35 -32.19534 116.12073 6314 ft 206 kts 271°
2026-04-22 04:36 -32.19620 116.10399 5894 ft 201 kts 273°
2026-04-22 04:36 -32.19677 116.08767 5482 ft 205 kts 274°
2026-04-22 04:36 -32.19713 116.07013 5145 ft 220 kts 273°
2026-04-22 04:36 -32.19747 116.05173 4877 ft 231 kts 273°
2026-04-22 04:37 -32.19773 116.03238 4652 ft 238 kts 275°
2026-04-22 04:37 -32.19521 116.01298 4454 ft 240 kts 287°
2026-04-22 04:37 -32.19102 115.99374 4279 ft 243 kts 288°
2026-04-22 04:37 -32.18673 115.97435 4105 ft 245 kts 288°
2026-04-22 04:38 -32.18243 115.95491 3997 ft 244 kts 288°
2026-04-22 04:38 -32.17822 115.93582 3963 ft 240 kts 288°
2026-04-22 04:38 -32.17175 115.91782 3931 ft 229 kts 312°
2026-04-22 04:38 -32.15870 115.90902 3938 ft 217 kts 352°
2026-04-22 04:39 -32.14379 115.91017 3950 ft 214 kts 10°
2026-04-22 04:39 -32.12919 115.91451 3866 ft 216 kts
2026-04-22 04:39 -32.11404 115.91625 3611 ft 225 kts
2026-04-22 04:39 -32.09832 115.91971 3334 ft 234 kts 12°
2026-04-22 04:40 -32.08234 115.92414 3072 ft 229 kts 12°
2026-04-22 04:40 -32.06765 115.92808 2790 ft 204 kts 12°
2026-04-22 04:40 -32.05444 115.93185 2500 ft 185 kts 13°
2026-04-22 04:40 -32.04234 115.93533 2163 ft 173 kts 12°
2026-04-22 04:41 -32.03093 115.93865 1786 ft 165 kts 13°
2026-04-22 04:41 -32.02007 115.94179 1391 ft 161 kts 12°
2026-04-22 04:41 -32.00949 115.94488 1073 ft 151 kts 13°
2026-04-22 04:41 -31.99957 115.94778 734 ft 141 kts 13°
2026-04-22 04:42 -31.98971 115.95064 624 ft 146 kts 12°
2026-04-22 04:42 -31.97996 115.95367 500 ft 145 kts 13°
2026-04-22 04:42 -31.97037 115.95625 311 ft 136 kts 13°
2026-04-22 04:42 -31.96124 115.95898 173 ft 135 kts 12°
2026-04-22 04:43 -31.95218 115.96161 82 ft 123 kts 13°
2026-04-22 04:43 -31.94624 115.96335 82 ft 58 kts 14°
2026-04-22 04:43 -31.94469 115.96471 82 ft 20 kts 94°
2026-04-22 04:43 -31.94495 115.96602 82 ft 6 kts 104°
2026-04-22 04:44 -31.94506 115.96652 82 ft 6 kts 102°
2026-04-22 04:44 -31.94469 115.96728 82 ft 14 kts 23°
2026-04-22 04:44 -31.94371 115.96758 82 ft 10 kts 21°
2026-04-22 04:44 -31.94347 115.96835 82 ft 8 kts 104°
2026-04-22 04:45 -31.94366 115.96892 82 ft 10 kts 139°
2026-04-22 04:45 -31.94398 115.96895 82 ft 7 kts 211°
2026-04-22 04:45 -31.94416 115.96885 82 ft 0 kts 193°